,,,PA_Meas_PMT16A,,PR_Meas_QMR101_102,,RH_Meas_QMH101,,SR_Meas_QMS101,,TA_Meas_QMH101,,GenWind,,GenWind,
date,time,status,PA,status,PR,status,RH,status,SR,status,TA,status,DirAvg,status,SpdAvg,
2010-04-19, 00:00:04,VALID,1000.99,VALID,0,VALID,92.7914,VALID,0,VALID,23.2719,VALID,25,VALID,0,
2010-04-19, 00:01:04,VALID,1000.97,VALID,0,VALID,92.7762,VALID,0,VALID,23.2719,VALID,25,VALID,0,
2010-04-19, 00:02:04,VALID,1000.97,VALID,0,VALID,92.7609,VALID,0,VALID,23.2507,VALID,25,VALID,0,
2010-04-19, 00:03:04,VALID,1000.93,VALID,0,VALID,92.7457,VALID,0,VALID,23.2507,VALID,25,VALID,0,
2010-04-19, 00:04:04,VALID,1000.94,VALID,0,VALID,92.6694,VALID,0,VALID,23.2524,VALID,25,VALID,0,
2010-04-19, 00:05:04,VALID,1000.92,VALID,0,VALID,92.7533,VALID,0,VALID,23.2312,VALID,25,VALID,0,
2010-04-19, 00:06:04,VALID,1000.92,VALID,0,VALID,92.8677,VALID,0,VALID,23.2524,VALID,25,VALID,0,
2010-04-19, 00:07:04,VALID,1000.94,VALID,0,VALID,92.822,VALID,0,VALID,23.2117,VALID,25,VALID,0,
2010-04-19, 00:08:04,VALID,1000.89,VALID,0,VALID,92.8143,VALID,0,VALID,23.2117,VALID,25,VALID,0,
2010-04-19, 00:09:04,VALID,1000.89,VALID,0,VALID,92.8143,VALID,0,VALID,23.1921,VALID,25,VALID,0,
2010-04-19, 00:10:04,VALID,1000.92,VALID,0,VALID,92.7609,VALID,0,VALID,23.1939,VALID,25,VALID,0,
2010-04-19, 00:11:04,VALID,1000.89,VALID,0,VALID,92.8143,VALID,0,VALID,23.1531,VALID,25,VALID,0,
2010-04-19, 00:12:04,VALID,1000.89,VALID,0,VALID,92.9669,VALID,0,VALID,23.1726,VALID,25,VALID,0,
2010-04-19, 00:13:04,VALID,1000.87,VALID,0,VALID,93.0203,VALID,0,VALID,23.1939,VALID,25,VALID,0,
2010-04-19, 00:14:04,VALID,1000.88,VALID,0,VALID,93.028,VALID,0,VALID,23.1939,VALID,25,VALID,0,
2010-04-19, 00:15:04,VALID,1000.9,VALID,0,VALID,93.028,VALID,0,VALID,23.1726,VALID,25,VALID,0,
2010-04-19, 00:16:04,VALID,1000.87,VALID,0,VALID,93.0508,VALID,0,VALID,23.1726,VALID,25,VALID,0,
2010-04-19, 00:17:05,VALID,1000.84,VALID,0,VALID,93.1043,VALID,0,VALID,23.2134,VALID,25,VALID,0.611328,
2010-04-19, 00:18:05,VALID,1000.86,VALID,0,VALID,93.1195,VALID,0,VALID,23.1921,VALID,26,VALID,0.499219,
2010-04-19, 00:19:05,VALID,1000.86,VALID,0,VALID,93.1424,VALID,0,VALID,23.2329,VALID,26,VALID,0.672266,
2010-04-19, 00:20:05,VALID,1000.85,VALID,0,VALID,93.1195,VALID,0,VALID,23.2329,VALID,26,VALID,0.767578,
2010-04-19, 00:21:05,VALID,1000.83,VALID,0,VALID,93.1195,VALID,0,VALID,23.2117,VALID,26,VALID,0.573828,
2010-04-19, 00:22:05,VALID,1000.84,VALID,0,VALID,93.1577,VALID,0,VALID,23.2312,VALID,26,VALID,0.636719,
2010-04-19, 00:23:05,VALID,1000.83,VALID,0,VALID,93.1348,VALID,0,VALID,23.2312,VALID,26,VALID,0.814453,
2010-04-19, 00:24:05,VALID,1000.83,VALID,0,VALID,93.1653,VALID,0,VALID,23.2507,VALID,26,VALID,0.797656,
2010-04-19, 00:25:05,VALID,1000.81,VALID,0,VALID,93.1577,VALID,0,VALID,23.2507,VALID,26,VALID,0.65625,
2010-04-19, 00:26:05,VALID,1000.81,VALID,0,VALID,93.1653,VALID,0,VALID,23.2719,VALID,26,VALID,0.09375,
2010-04-19, 00:27:05,VALID,1000.81,VALID,0,VALID,93.1577,VALID,0,VALID,23.2915,VALID,26,VALID,0,
2010-04-19, 00:28:05,VALID,1000.8,VALID,0,VALID,93.1729,VALID,0,VALID,23.2915,VALID,26,VALID,0,
2010-04-19, 00:29:05,VALID,1000.79,VALID,0,VALID,93.1805,VALID,0,VALID,23.2915,VALID,26,VALID,0,
2010-04-19, 00:30:05,VALID,1000.79,VALID,0,VALID,93.1653,VALID,0,VALID,23.2915,VALID,26,VALID,0,
2010-04-19, 00:31:05,VALID,1000.76,VALID,0,VALID,93.1805,VALID,0,VALID,23.2915,VALID,26,VALID,0,
2010-04-19, 00:32:05,VALID,1000.74,VALID,0,VALID,93.2034,VALID,0,VALID,23.2897,VALID,26,VALID,0,
2010-04-19, 00:33:05,VALID,1000.71,VALID,0,VALID,93.2034,VALID,0,VALID,23.3305,VALID,26,VALID,0,
2010-04-19, 00:34:05,VALID,1000.72,VALID,0,VALID,93.2034,VALID,0,VALID,23.311,VALID,26,VALID,0,
2010-04-19, 00:35:05,VALID,1000.67,VALID,0,VALID,93.2111,VALID,0,VALID,23.311,VALID,26,VALID,0,
2010-04-19, 00:36:05,VALID,1000.67,VALID,0,VALID,93.1805,VALID,0,VALID,23.3305,VALID,26,VALID,0,
2010-04-19, 00:37:05,VALID,1000.65,VALID,0,VALID,93.1882,VALID,0,VALID,23.311,VALID,26,VALID,0,
2010-04-19, 00:38:05,VALID,1000.66,VALID,0,VALID,93.2034,VALID,0,VALID,23.2897,VALID,26,VALID,0,
2010-04-19, 00:39:05,VALID,1000.63,VALID,0,VALID,93.2111,VALID,0,VALID,23.3305,VALID,26,VALID,0,
2010-04-19, 00:40:05,VALID,1000.61,VALID,0,VALID,93.1958,VALID,0,VALID,23.3305,VALID,26,VALID,0,
2010-04-19, 00:41:05,VALID,1000.62,VALID,0,VALID,93.2416,VALID,0,VALID,23.3518,VALID,26,VALID,0,
2010-04-19, 00:42:05,VALID,1000.64,VALID,0,VALID,93.2187,VALID,0,VALID,23.311,VALID,36,VALID,0,
2010-04-19, 00:43:05,VALID,1000.62,VALID,0,VALID,93.2263,VALID,0,VALID,23.311,VALID,42,VALID,0,
2010-04-19, 00:44:05,VALID,1000.61,VALID,0,VALID,93.2034,VALID,0,VALID,23.311,VALID,42,VALID,0.892578,
2010-04-19, 00:45:05,VALID,1000.58,VALID,0,VALID,93.1958,VALID,0,VALID,23.311,VALID,42,VALID,0.860156,
2010-04-19, 00:46:05,VALID,1000.59,VALID,0,VALID,93.1805,VALID,0,VALID,23.2915,VALID,42,VALID,0.487109,
2010-04-19, 00:47:05,VALID,1000.56,VALID,0,VALID,93.1424,VALID,0,VALID,23.2915,VALID,42,VALID,0.400391,
2010-04-19, 00:48:05,VALID,1000.57,VALID,0,VALID,93.1348,VALID,0,VALID,23.2719,VALID,42,VALID,0,
2010-04-19, 00:49:05,VALID,1000.53,VALID,0,VALID,93.1424,VALID,0,VALID,23.2719,VALID,42,VALID,0,
2010-04-19, 00:50:05,VALID,1000.55,VALID,0,VALID,93.1424,VALID,0,VALID,23.2524,VALID,42,VALID,0,
2010-04-19, 00:51:05,VALID,1000.55,VALID,0,VALID,93.1271,VALID,0,VALID,23.2117,VALID,42,VALID,0,
2010-04-19, 00:52:05,VALID,1000.53,VALID,0,VALID,93.15,VALID,0,VALID,23.2329,VALID,42,VALID,0,
2010-04-19, 00:53:05,VALID,1000.54,VALID,0,VALID,93.1805,VALID,0,VALID,23.2329,VALID,42,VALID,0,
2010-04-19, 00:54:05,VALID,1000.47,VALID,0,VALID,93.2187,VALID,0,VALID,23.2117,VALID,42,VALID,0,
2010-04-19, 00:55:05,VALID,1000.46,VALID,0,VALID,93.2263,VALID,0,VALID,23.2524,VALID,42,VALID,0,
2010-04-19, 00:56:05,VALID,1000.47,VALID,0,VALID,93.2187,VALID,0,VALID,23.2329,VALID,34,VALID,0.492578,
2010-04-19, 00:57:05,VALID,1000.45,VALID,0,VALID,93.234,VALID,0,VALID,23.2134,VALID,24,VALID,0.757813,
2010-04-19, 00:58:05,VALID,1000.47,VALID,0,VALID,93.2797,VALID,0,VALID,23.2134,VALID,18,VALID,0.609766,
2010-04-19, 00:59:05,VALID,1000.45,VALID,0,VALID,93.2645,VALID,0,VALID,23.2134,VALID,18,VALID,0.417188,
2010-04-19, 01:00:05,VALID,1000.46,VALID,0,VALID,93.2568,VALID,0,VALID,23.1939,VALID,15,VALID,0,
2010-04-19, 01:01:05,VALID,1000.41,VALID,0,VALID,93.295,VALID,0,VALID,23.1939,VALID,15,VALID,0,
2010-04-19, 01:02:05,VALID,1000.44,VALID,0,VALID,93.3103,VALID,0,VALID,23.2134,VALID,15,VALID,0,
2010-04-19, 01:03:05,VALID,1000.4,VALID,0,VALID,93.3103,VALID,0,VALID,23.1726,VALID,15,VALID,0,
2010-04-19, 01:04:05,VALID,1000.41,VALID,0,VALID,93.3408,VALID,0,VALID,23.1921,VALID,15,VALID,0,
2010-04-19, 01:05:05,VALID,1000.4,VALID,0,VALID,93.3255,VALID,0,VALID,23.1726,VALID,16,VALID,0,
2010-04-19, 01:06:05,VALID,1000.4,VALID,0,VALID,93.3484,VALID,0,VALID,23.1921,VALID,16,VALID,0,
2010-04-19, 01:07:05,VALID,1000.4,VALID,0,VALID,93.3484,VALID,0,VALID,23.2134,VALID,16,VALID,0,
2010-04-19, 01:08:05,VALID,1000.37,VALID,0,VALID,93.3637,VALID,0,VALID,23.2134,VALID,16,VALID,0,
2010-04-19, 01:09:05,VALID,1000.39,VALID,0,VALID,93.4247,VALID,0,VALID,23.2329,VALID,40,VALID,0,
2010-04-19, 01:10:05,VALID,1000.38,VALID,0,VALID,93.4247,VALID,0,VALID,23.2524,VALID,36,VALID,0,
2010-04-19, 01:11:05,VALID,1000.35,VALID,0,VALID,93.4781,VALID,0,VALID,23.2915,VALID,30,VALID,0,
2010-04-19, 01:12:05,VALID,1000.36,VALID,0,VALID,93.5239,VALID,0,VALID,23.3092,VALID,26,VALID,0,
2010-04-19, 01:13:05,VALID,1000.33,VALID,0,VALID,93.5086,VALID,0,VALID,23.3287,VALID,24,VALID,0,
2010-04-19, 01:14:05,VALID,1000.34,VALID,0,VALID,93.5086,VALID,0,VALID,23.3677,VALID,32,VALID,0.773828,
2010-04-19, 01:15:05,VALID,1000.34,VALID,0,VALID,93.5086,VALID,0,VALID,23.3872,VALID,33,VALID,0.680859,
2010-04-19, 01:16:05,VALID,1000.3,VALID,0,VALID,93.5163,VALID,0,VALID,23.428,VALID,27,VALID,0.466016,
2010-04-19, 01:17:05,VALID,1000.29,VALID,0,VALID,93.4934,VALID,0,VALID,23.428,VALID,27,VALID,0.291797,
2010-04-19, 01:18:05,VALID,1000.21,VALID,0,VALID,93.4628,VALID,0,VALID,23.4263,VALID,27,VALID,0.0570313,
2010-04-19, 01:19:05,VALID,1000.24,VALID,0,VALID,93.4705,VALID,0,VALID,23.4263,VALID,27,VALID,0,
2010-04-19, 01:20:05,VALID,1000.21,VALID,0,VALID,93.4476,VALID,0,VALID,23.4458,VALID,27,VALID,0,
2010-04-19, 01:21:05,VALID,1000.18,VALID,0,VALID,93.44,VALID,0,VALID,23.4458,VALID,27,VALID,0,
2010-04-19, 01:22:05,VALID,1000.18,VALID,0,VALID,93.4094,VALID,0,VALID,23.4458,VALID,27,VALID,0,
2010-04-19, 01:23:05,VALID,1000.18,VALID,0,VALID,93.3637,VALID,0,VALID,23.4671,VALID,27,VALID,0,
2010-04-19, 01:24:05,VALID,1000.17,VALID,0,VALID,93.3637,VALID,0,VALID,23.4458,VALID,27,VALID,0,
2010-04-19, 01:25:05,VALID,1000.18,VALID,0,VALID,93.3484,VALID,0,VALID,23.4458,VALID,27,VALID,0,
2010-04-19, 01:26:05,VALID,1000.21,VALID,0,VALID,93.3331,VALID,0,VALID,23.4671,VALID,27,VALID,0,
2010-04-19, 01:27:05,VALID,1000.17,VALID,0,VALID,93.3026,VALID,0,VALID,23.4458,VALID,27,VALID,0,
2010-04-19, 01:28:05,VALID,1000.17,VALID,0,VALID,93.2874,VALID,0,VALID,23.4671,VALID,27,VALID,0,
2010-04-19, 01:29:05,VALID,1000.17,VALID,0,VALID,93.2721,VALID,0,VALID,23.4263,VALID,27,VALID,0,
2010-04-19, 01:30:05,VALID,1000.14,VALID,0,VALID,93.2568,VALID,0,VALID,23.4671,VALID,27,VALID,0,
2010-04-19, 01:31:05,VALID,1000.14,VALID,0,VALID,93.2416,VALID,0,VALID,23.4671,VALID,27,VALID,0,
2010-04-19, 01:32:05,VALID,1000.15,VALID,0,VALID,93.2034,VALID,0,VALID,23.4458,VALID,27,VALID,0,
2010-04-19, 01:33:05,VALID,1000.15,VALID,0,VALID,93.1958,VALID,0,VALID,23.4263,VALID,27,VALID,0,
2010-04-19, 01:34:05,VALID,1000.15,VALID,0,VALID,93.1653,VALID,0,VALID,23.4475,VALID,27,VALID,0,
2010-04-19, 01:35:05,VALID,1000.13,VALID,0,VALID,93.1653,VALID,0,VALID,23.4475,VALID,27,VALID,0,
2010-04-19, 01:36:05,VALID,1000.12,VALID,0,VALID,93.1882,VALID,0,VALID,23.4263,VALID,27,VALID,0,
2010-04-19, 01:37:05,VALID,1000.08,VALID,0,VALID,93.1424,VALID,0,VALID,23.428,VALID,27,VALID,0,
2010-04-19, 01:38:05,VALID,1000.06,VALID,0,VALID,93.1348,VALID,0,VALID,23.428,VALID,27,VALID,0,
2010-04-19, 01:39:05,VALID,1000.09,VALID,0,VALID,93.1424,VALID,0,VALID,23.3872,VALID,27,VALID,0,
2010-04-19, 01:40:05,VALID,1000.03,VALID,0,VALID,93.1043,VALID,0,VALID,23.3872,VALID,27,VALID,0,
2010-04-19, 01:41:05,VALID,1000.07,VALID,0,VALID,93.1043,VALID,0,VALID,23.3677,VALID,27,VALID,0,
2010-04-19, 01:42:05,VALID,1000.03,VALID,0,VALID,93.0966,VALID,0,VALID,23.3677,VALID,27,VALID,0,
2010-04-19, 01:43:05,VALID,1000.02,VALID,0,VALID,93.0737,VALID,0,VALID,23.35,VALID,27,VALID,0,
2010-04-19, 01:44:05,VALID,999.991,VALID,0,VALID,93.0585,VALID,0,VALID,23.3092,VALID,27,VALID,0,
2010-04-19, 01:45:05,VALID,1000.01,VALID,0,VALID,93.0508,VALID,0,VALID,23.2897,VALID,27,VALID,0,
2010-04-19, 01:46:05,VALID,999.99,VALID,0,VALID,93.0508,VALID,0,VALID,23.2897,VALID,27,VALID,0,
2010-04-19, 01:47:05,VALID,999.991,VALID,0,VALID,93.1195,VALID,0,VALID,23.2915,VALID,27,VALID,0,
2010-04-19, 01:48:05,VALID,1000.02,VALID,0,VALID,93.0966,VALID,0,VALID,23.2702,VALID,27,VALID,0,
2010-04-19, 01:49:05,VALID,1000.01,VALID,0,VALID,93.1119,VALID,0.112286,VALID,23.2507,VALID,27,VALID,0,
2010-04-19, 01:50:05,VALID,1000.02,VALID,0,VALID,93.1348,VALID,0,VALID,23.2507,VALID,27,VALID,0,
2010-04-19, 01:51:05,VALID,999.983,VALID,0,VALID,93.2034,VALID,0,VALID,23.2702,VALID,27,VALID,0,
2010-04-19, 01:52:05,VALID,1000.01,VALID,0,VALID,93.2645,VALID,0,VALID,23.2702,VALID,27,VALID,0.498828,
2010-04-19, 01:53:05,VALID,1000.01,VALID,0,VALID,93.2568,VALID,0,VALID,23.2915,VALID,27,VALID,0.742969,
2010-04-19, 01:54:05,VALID,999.983,VALID,0,VALID,93.2034,VALID,0,VALID,23.2915,VALID,23,VALID,1.03242,
2010-04-19, 01:55:05,VALID,999.973,VALID,0,VALID,93.1653,VALID,0,VALID,23.2117,VALID,23,VALID,0.767187,
2010-04-19, 01:56:05,VALID,999.953,VALID,0,VALID,93.1424,VALID,0,VALID,23.1531,VALID,23,VALID,0.821094,
2010-04-19, 01:57:05,VALID,999.917,VALID,0,VALID,93.1653,VALID,0,VALID,23.1549,VALID,24,VALID,0.852344,
2010-04-19, 01:58:05,VALID,999.907,VALID,0,VALID,93.2645,VALID,0,VALID,23.1354,VALID,29,VALID,0.735547,
2010-04-19, 01:59:05,VALID,999.831,VALID,0,VALID,93.3255,VALID,0,VALID,23.1549,VALID,29,VALID,0.614844,
2010-04-19, 02:00:05,VALID,999.838,VALID,0,VALID,93.3866,VALID,0,VALID,23.1336,VALID,29,VALID,0.457031,
2010-04-19, 02:01:05,VALID,999.775,VALID,0,VALID,93.4094,VALID,0,VALID,23.1744,VALID,29,VALID,0,
2010-04-19, 02:02:05,VALID,999.765,VALID,0,VALID,93.3942,VALID,0,VALID,23.1531,VALID,29,VALID,0,
2010-04-19, 02:03:05,VALID,999.747,VALID,0,VALID,93.3866,VALID,0,VALID,23.1744,VALID,29,VALID,0,
2010-04-19, 02:04:05,VALID,999.734,VALID,0,VALID,93.3866,VALID,0,VALID,23.1336,VALID,29,VALID,0,
2010-04-19, 02:05:05,VALID,999.724,VALID,0,VALID,93.4323,VALID,0,VALID,23.1336,VALID,32,VALID,0,
2010-04-19, 02:06:05,VALID,999.695,VALID,0,VALID,93.4705,VALID,0,VALID,23.1336,VALID,48,VALID,0,
2010-04-19, 02:07:05,VALID,999.697,VALID,0,VALID,93.4857,VALID,0,VALID,23.1531,VALID,51,VALID,0,
2010-04-19, 02:08:05,VALID,999.687,VALID,0,VALID,93.5086,VALID,0,VALID,23.1726,VALID,51,VALID,0,
2010-04-19, 02:09:05,VALID,999.681,VALID,0,VALID,93.4705,VALID,0,VALID,23.1531,VALID,51,VALID,0,
2010-04-19, 02:10:05,VALID,999.653,VALID,0,VALID,93.4857,VALID,0,VALID,23.1531,VALID,51,VALID,0,
2010-04-19, 02:11:05,VALID,999.672,VALID,0,VALID,93.5086,VALID,0,VALID,23.1744,VALID,48,VALID,0,
2010-04-19, 02:12:05,VALID,999.662,VALID,0,VALID,93.501,VALID,0,VALID,23.1531,VALID,48,VALID,0,
2010-04-19, 02:13:05,VALID,999.653,VALID,0,VALID,93.5163,VALID,0,VALID,23.1531,VALID,48,VALID,0,
2010-04-19, 02:14:05,VALID,999.602,VALID,0,VALID,93.5468,VALID,0,VALID,23.1726,VALID,48,VALID,0,
2010-04-19, 02:15:05,VALID,999.636,VALID,0,VALID,93.562,VALID,0,VALID,23.1939,VALID,48,VALID,0,
2010-04-19, 02:16:05,VALID,999.627,VALID,0,VALID,93.562,VALID,0,VALID,23.1726,VALID,48,VALID,0,
2010-04-19, 02:17:05,VALID,999.65,VALID,0,VALID,93.562,VALID,0,VALID,23.1726,VALID,48,VALID,0,
2010-04-19, 02:18:05,VALID,999.626,VALID,0,VALID,93.562,VALID,0,VALID,23.2134,VALID,48,VALID,0,
2010-04-19, 02:19:05,VALID,999.621,VALID,0,VALID,93.5773,VALID,0,VALID,23.2134,VALID,48,VALID,0,
2010-04-19, 02:20:05,VALID,999.613,VALID,0,VALID,93.6078,VALID,0,VALID,23.1921,VALID,48,VALID,0,
2010-04-19, 02:21:05,VALID,999.612,VALID,0,VALID,93.6002,VALID,0,VALID,23.2329,VALID,48,VALID,0,
2010-04-19, 02:22:05,VALID,999.63,VALID,0,VALID,93.5926,VALID,0,VALID,23.2117,VALID,48,VALID,0,
2010-04-19, 02:23:05,VALID,999.601,VALID,0,VALID,93.5697,VALID,0,VALID,23.2329,VALID,48,VALID,0,
2010-04-19, 02:24:05,VALID,999.572,VALID,0,VALID,93.5849,VALID,0,VALID,23.2117,VALID,48,VALID,0,
2010-04-19, 02:25:05,VALID,999.572,VALID,0,VALID,93.6002,VALID,0,VALID,23.2329,VALID,48,VALID,0,
2010-04-19, 02:26:05,VALID,999.599,VALID,0,VALID,93.6002,VALID,0,VALID,23.2329,VALID,48,VALID,0,
2010-04-19, 02:27:05,VALID,999.579,VALID,0,VALID,93.6002,VALID,0,VALID,23.2117,VALID,48,VALID,0,
2010-04-19, 02:28:05,VALID,999.615,VALID,0,VALID,93.6078,VALID,0,VALID,23.2117,VALID,48,VALID,0,
2010-04-19, 02:29:05,VALID,999.614,VALID,0,VALID,93.6231,VALID,0,VALID,23.2312,VALID,48,VALID,0,
2010-04-19, 02:30:05,VALID,999.595,VALID,0,VALID,93.6231,VALID,0,VALID,23.2524,VALID,48,VALID,0,
2010-04-19, 02:31:05,VALID,999.583,VALID,0,VALID,93.6307,VALID,0,VALID,23.2507,VALID,48,VALID,0,
2010-04-19, 02:32:05,VALID,999.605,VALID,0,VALID,93.6154,VALID,0,VALID,23.2524,VALID,48,VALID,0,
2010-04-19, 02:33:05,VALID,999.607,VALID,0,VALID,93.6307,VALID,0,VALID,23.2507,VALID,48,VALID,0,
2010-04-19, 02:34:05,VALID,999.631,VALID,0,VALID,93.6307,VALID,0,VALID,23.2507,VALID,48,VALID,0,
2010-04-19, 02:35:05,VALID,999.614,VALID,0,VALID,93.646,VALID,0,VALID,23.2507,VALID,48,VALID,0,
2010-04-19, 02:36:05,VALID,999.614,VALID,0,VALID,93.6688,VALID,0,VALID,23.2915,VALID,48,VALID,0,
2010-04-19, 02:37:05,VALID,999.623,VALID,0,VALID,93.6917,VALID,0,VALID,23.3092,VALID,48,VALID,0,
2010-04-19, 02:38:05,VALID,999.627,VALID,0,VALID,93.707,VALID,0,VALID,23.35,VALID,48,VALID,0,
2010-04-19, 02:39:05,VALID,999.641,VALID,0,VALID,93.6612,VALID,0,VALID,23.35,VALID,48,VALID,0,
2010-04-19, 02:40:05,VALID,999.659,VALID,0,VALID,93.6765,VALID,0,VALID,23.3695,VALID,48,VALID,0,
2010-04-19, 02:41:05,VALID,999.662,VALID,0,VALID,93.6612,VALID,0,VALID,23.3482,VALID,48,VALID,0,
2010-04-19, 02:42:05,VALID,999.648,VALID,0,VALID,93.6917,VALID,0,VALID,23.3677,VALID,48,VALID,0,
2010-04-19, 02:43:05,VALID,999.655,VALID,0,VALID,93.6994,VALID,0,VALID,23.3872,VALID,48,VALID,0,
2010-04-19, 02:44:05,VALID,999.669,VALID,0,VALID,93.707,VALID,0.112286,VALID,23.3872,VALID,48,VALID,0,
2010-04-19, 02:45:05,VALID,999.636,VALID,0,VALID,93.7146,VALID,0,VALID,23.3872,VALID,48,VALID,0,
2010-04-19, 02:46:05,VALID,999.639,VALID,0,VALID,93.6917,VALID,0,VALID,23.4263,VALID,48,VALID,0,
2010-04-19, 02:47:05,VALID,999.614,VALID,0,VALID,93.6994,VALID,0,VALID,23.4085,VALID,48,VALID,0,
2010-04-19, 02:48:05,VALID,999.604,VALID,0,VALID,93.6841,VALID,0,VALID,23.4085,VALID,48,VALID,0,
2010-04-19, 02:49:05,VALID,999.547,VALID,0,VALID,93.6841,VALID,0,VALID,23.428,VALID,48,VALID,0,
2010-04-19, 02:50:05,VALID,999.517,VALID,0,VALID,93.6994,VALID,0,VALID,23.4688,VALID,48,VALID,0,
2010-04-19, 02:51:05,VALID,999.506,VALID,0,VALID,93.6994,VALID,0,VALID,23.4671,VALID,48,VALID,0,
2010-04-19, 02:52:05,VALID,999.496,VALID,0,VALID,93.6765,VALID,0,VALID,23.4884,VALID,48,VALID,0,
2010-04-19, 02:53:05,VALID,999.467,VALID,0,VALID,93.6917,VALID,0,VALID,23.4866,VALID,48,VALID,0,
2010-04-19, 02:54:05,VALID,999.484,VALID,0,VALID,93.6688,VALID,0,VALID,23.5274,VALID,48,VALID,0,
2010-04-19, 02:55:05,VALID,999.468,VALID,0,VALID,93.6612,VALID,0,VALID,23.5061,VALID,48,VALID,0,
2010-04-19, 02:56:05,VALID,999.465,VALID,0,VALID,93.646,VALID,0,VALID,23.5061,VALID,48,VALID,0,
2010-04-19, 02:57:05,VALID,999.485,VALID,0,VALID,93.5773,VALID,0,VALID,23.4866,VALID,45,VALID,0.177734,
2010-04-19, 02:58:05,VALID,999.46,VALID,0,VALID,93.5315,VALID,0,VALID,23.4475,VALID,24,VALID,1.20664,
2010-04-19, 02:59:05,VALID,999.5,VALID,0,VALID,93.5086,VALID,0,VALID,23.4298,VALID,20,VALID,1.09805,
2010-04-19, 03:00:05,VALID,999.48,VALID,0,VALID,93.5315,VALID,0,VALID,23.4103,VALID,19,VALID,0.904688,
2010-04-19, 03:01:04,VALID,999.477,VALID,0,VALID,93.5468,VALID,0,VALID,23.4085,VALID,11,VALID,0.478516,
2010-04-19, 03:02:04,VALID,999.453,VALID,0,VALID,93.5468,VALID,0,VALID,23.428,VALID,11,VALID,0.101563,
2010-04-19, 03:03:04,VALID,999.412,VALID,0,VALID,93.5544,VALID,0,VALID,23.428,VALID,11,VALID,0,
2010-04-19, 03:04:04,VALID,999.428,VALID,0,VALID,93.5239,VALID,0,VALID,23.4085,VALID,11,VALID,0,
2010-04-19, 03:05:04,VALID,999.397,VALID,0,VALID,93.5468,VALID,0,VALID,23.4085,VALID,11,VALID,0.00195313,
2010-04-19, 03:06:04,VALID,999.446,VALID,0,VALID,93.501,VALID,0,VALID,23.3695,VALID,11,VALID,0,
2010-04-19, 03:07:04,VALID,999.417,VALID,0,VALID,93.5544,VALID,0,VALID,23.389,VALID,11,VALID,0,
2010-04-19, 03:08:04,VALID,999.455,VALID,0,VALID,93.5544,VALID,0,VALID,23.3677,VALID,11,VALID,0.409766,
2010-04-19, 03:09:04,VALID,999.46,VALID,0,VALID,93.5391,VALID,0,VALID,23.3482,VALID,21,VALID,0.695313,
2010-04-19, 03:10:04,VALID,999.47,VALID,0,VALID,93.4628,VALID,0,VALID,23.35,VALID,21,VALID,0.76875,
2010-04-19, 03:11:04,VALID,999.47,VALID,0,VALID,93.4628,VALID,0,VALID,23.3092,VALID,21,VALID,0.645703,
2010-04-19, 03:12:04,VALID,999.42,VALID,0,VALID,93.4476,VALID,0,VALID,23.311,VALID,21,VALID,0.357422,
2010-04-19, 03:13:04,VALID,999.447,VALID,0,VALID,93.4781,VALID,0,VALID,23.2915,VALID,21,VALID,0,
2010-04-19, 03:14:04,VALID,999.39,VALID,0,VALID,93.4857,VALID,0,VALID,23.2915,VALID,21,VALID,0,
2010-04-19, 03:15:04,VALID,999.409,VALID,0,VALID,93.5086,VALID,0,VALID,23.2915,VALID,21,VALID,0,
2010-04-19, 03:16:04,VALID,999.377,VALID,0,VALID,93.5163,VALID,0,VALID,23.2915,VALID,21,VALID,0,
2010-04-19, 03:17:04,VALID,999.369,VALID,0,VALID,93.5315,VALID,0,VALID,23.311,VALID,21,VALID,0,
2010-04-19, 03:18:04,VALID,999.345,VALID,0,VALID,93.5391,VALID,0,VALID,23.311,VALID,21,VALID,0,
2010-04-19, 03:19:04,VALID,999.331,VALID,0,VALID,93.5773,VALID,0,VALID,23.311,VALID,21,VALID,0,
2010-04-19, 03:20:04,VALID,999.281,VALID,0,VALID,93.5773,VALID,0,VALID,23.2897,VALID,21,VALID,0,
2010-04-19, 03:21:04,VALID,999.282,VALID,0,VALID,93.5544,VALID,0,VALID,23.311,VALID,21,VALID,0.261328,
2010-04-19, 03:22:04,VALID,999.284,VALID,0,VALID,93.5697,VALID,0,VALID,23.311,VALID,22,VALID,0.861719,
2010-04-19, 03:23:04,VALID,999.275,VALID,0,VALID,93.5468,VALID,0,VALID,23.2915,VALID,23,VALID,0.763281,
2010-04-19, 03:24:04,VALID,999.251,VALID,0,VALID,93.5086,VALID,0,VALID,23.2507,VALID,23,VALID,0.557422,
2010-04-19, 03:25:04,VALID,999.232,VALID,0,VALID,93.501,VALID,0,VALID,23.2312,VALID,23,VALID,0.566797,
2010-04-19, 03:26:04,VALID,999.227,VALID,0,VALID,93.501,VALID,0,VALID,23.2329,VALID,23,VALID,0,
2010-04-19, 03:27:04,VALID,999.2,VALID,0,VALID,93.5163,VALID,0,VALID,23.1921,VALID,23,VALID,0,
2010-04-19, 03:28:04,VALID,999.224,VALID,0,VALID,93.5773,VALID,0,VALID,23.2117,VALID,23,VALID,0,
2010-04-19, 03:29:04,VALID,999.242,VALID,0,VALID,93.5544,VALID,0,VALID,23.2329,VALID,23,VALID,0,
2010-04-19, 03:30:04,VALID,999.208,VALID,0,VALID,93.5697,VALID,0,VALID,23.2312,VALID,23,VALID,0,
2010-04-19, 03:31:04,VALID,999.208,VALID,0,VALID,93.5849,VALID,0,VALID,23.2524,VALID,23,VALID,0,
2010-04-19, 03:32:04,VALID,999.21,VALID,0,VALID,93.5773,VALID,0,VALID,23.2329,VALID,23,VALID,0,
2010-04-19, 03:33:04,VALID,999.206,VALID,0,VALID,93.5773,VALID,0,VALID,23.2134,VALID,23,VALID,0,
2010-04-19, 03:34:04,VALID,999.222,VALID,0,VALID,93.5926,VALID,0,VALID,23.2134,VALID,23,VALID,0,
2010-04-19, 03:35:04,VALID,999.19,VALID,0,VALID,93.5849,VALID,0,VALID,23.2134,VALID,23,VALID,0,
2010-04-19, 03:36:04,VALID,999.195,VALID,0,VALID,93.6078,VALID,0,VALID,23.1939,VALID,23,VALID,0,
2010-04-19, 03:37:04,VALID,999.177,VALID,0,VALID,93.6383,VALID,0,VALID,23.1939,VALID,23,VALID,0,
2010-04-19, 03:38:04,VALID,999.174,VALID,0,VALID,93.6536,VALID,0,VALID,23.1939,VALID,23,VALID,0,
2010-04-19, 03:39:04,VALID,999.193,VALID,0,VALID,93.6688,VALID,0,VALID,23.2134,VALID,23,VALID,0,
2010-04-19, 03:40:04,VALID,999.19,VALID,0,VALID,93.6841,VALID,0,VALID,23.2329,VALID,23,VALID,0,
2010-04-19, 03:41:04,VALID,999.183,VALID,0,VALID,93.6994,VALID,0,VALID,23.2312,VALID,23,VALID,0,
2010-04-19, 03:42:04,VALID,999.159,VALID,0,VALID,93.707,VALID,0,VALID,23.2524,VALID,23,VALID,0,
2010-04-19, 03:43:04,VALID,999.174,VALID,0,VALID,93.6917,VALID,0,VALID,23.2524,VALID,17,VALID,0,
2010-04-19, 03:44:04,VALID,999.129,VALID,0,VALID,93.6536,VALID,0,VALID,23.1921,VALID,11,VALID,0,
2010-04-19, 03:45:04,VALID,999.141,VALID,0,VALID,93.6536,VALID,0,VALID,23.1531,VALID,12,VALID,0,
2010-04-19, 03:46:04,VALID,999.126,VALID,0,VALID,93.6765,VALID,0,VALID,23.1744,VALID,12,VALID,0,
2010-04-19, 03:47:04,VALID,999.16,VALID,0,VALID,93.7146,VALID,0,VALID,23.1531,VALID,12,VALID,0,
2010-04-19, 03:48:04,VALID,999.154,VALID,0,VALID,93.7146,VALID,0,VALID,23.1939,VALID,12,VALID,0,
2010-04-19, 03:49:04,VALID,999.155,VALID,0,VALID,93.7146,VALID,0,VALID,23.1939,VALID,12,VALID,0,
2010-04-19, 03:50:04,VALID,999.139,VALID,0,VALID,93.6841,VALID,0,VALID,23.1549,VALID,12,VALID,0,
2010-04-19, 03:51:04,VALID,999.148,VALID,0,VALID,93.6917,VALID,0,VALID,23.1336,VALID,12,VALID,0,
2010-04-19, 03:52:04,VALID,999.15,VALID,0,VALID,93.707,VALID,0,VALID,23.1336,VALID,11,VALID,0,
2010-04-19, 03:53:04,VALID,999.16,VALID,0,VALID,93.7604,VALID,0,VALID,23.1549,VALID,12,VALID,0,
2010-04-19, 03:54:04,VALID,999.144,VALID,0,VALID,93.7451,VALID,0,VALID,23.1549,VALID,12,VALID,0,
2010-04-19, 03:55:04,VALID,999.148,VALID,0,VALID,93.768,VALID,0,VALID,23.1336,VALID,11,VALID,0,
2010-04-19, 03:56:04,VALID,999.127,VALID,0,VALID,93.7451,VALID,0,VALID,23.1354,VALID,12,VALID,0,
2010-04-19, 03:57:04,VALID,999.101,VALID,0,VALID,93.7223,VALID,0,VALID,23.1159,VALID,12,VALID,0,
2010-04-19, 03:58:04,VALID,999.075,VALID,0,VALID,93.6994,VALID,0,VALID,23.0769,VALID,12,VALID,0,
2010-04-19, 03:59:04,VALID,999.058,VALID,0,VALID,93.707,VALID,0,VALID,23.0769,VALID,12,VALID,0,